This is the latest recevied weather packets stored in our database for station/object KB9VKQ-13. If no packets are shown the sender has not sent any weather packets the latest 10 day(s).
| Time | Temp. | Humidity | Pressure | Rain* | Wind** | Luminosity | Snow |
|---|---|---|---|---|---|---|---|
| 1777977039 | 14.44° C | - | 0 hPa | 1.27 mm | - | - | - |
| 1777976440 | 14.44° C | - | 0 hPa | 1.27 mm | - | - | - |
| 1777975840 | 14.44° C | - | 0 hPa | 1.27 mm | - | - | - |
| 1777975264 | 14.44° C | - | 0 hPa | 1.27 mm | - | - | - |
| 1777975210 | 14.44° C | - | 0 hPa | 1.27 mm | - | - | - |
| 1777974580 | 15° C | - | 0 hPa | 0.76 mm | - | - | - |
| 1777973979 | 15° C | - | 0 hPa | 0 mm | - | - | - |
| 1777973349 | 15° C | - | 0 hPa | 0 mm | - | - | - |
| 1777972719 | 15° C | - | 0 hPa | 0 mm | - | - | - |
| 1777972119 | 15° C | - | 0 hPa | 0 mm | - | - | - |
| 1777971490 | 14.44° C | - | 0 hPa | 0.25 mm | - | - | - |
| 1777970889 | 15° C | - | 0 hPa | 0.25 mm | - | - | - |
| 1777970259 | 15° C | - | 0 hPa | 4.06 mm | - | - | - |
| 1777969629 | 15.56° C | - | 0 hPa | 2.79 mm | - | - | - |
| 1777968999 | 15.56° C | - | 0 hPa | 4.06 mm | - | - | - |
| 1777968399 | 15.56° C | - | 0 hPa | 4.06 mm | - | - | - |
| 1777967919 | 15.56° C | - | 0 hPa | 3.81 mm | - | - | - |
| 1777967769 | 15.56° C | - | 0 hPa | 3.81 mm | - | - | - |
| 1777967169 | 16.11° C | - | 0 hPa | 3.81 mm | - | - | - |
| 1777966539 | 16.67° C | - | 0 hPa | 2.54 mm | - | - | - |
| 1777965909 | 17.78° C | - | 0 hPa | 0.76 mm | - | - | - |
| 1777965413 | 18.33° C | - | 0 hPa | 0 mm | - | - | - |
| 1777965309 | 18.33° C | - | 0 hPa | 0 mm | - | - | - |
| 1777964679 | 18.89° C | - | 0 hPa | 0 mm | - | - | - |
| 1777964079 | 18.89° C | - | 0 hPa | 0 mm | - | - | - |
* Rain latest hour (hover to see other rain measurements)
** Current wind speed in m/s (hover to see current wind gust speed)